Location: Cantaing
(50.1487°N, 3.1675°E)
Time: 07:07:37
(UTC+00:00)

Cosmos 1707 Rocket - Pass Details

Date: 14 January 2026
Orbit: 598 x 624 km, 82.5° (Epoch: 10 February)

Event Time Altitude Azimuth Distance (km) Brightness Sun altitude
Rises 06:52:28 0° 343° (NNW) 2,859 6.6 -7.7°
Reaches altitude 10° 06:54:48 10° 335° (NNW) 1,953 5.7 -7.4°
Maximum altitude 06:58:45 37° 268° (W) 953 4.1 -6.8°
Drops below altitude 10° 07:02:42 10° 202° (SSW) 1,946 6.2 -6.2°
Sets 07:05:01 0° 194° (SSW) 2,848 7.1 -5.9°
